Regional Weather Roundup
Issued by NWS

Home | Current Version | Previous Version | Graphics & Text | Print | Product List | Glossary On
Versions: 1 2 3 4 5 6 7 8 9 10 11 12 13 14 15 16 17 18 19 20 21 22 23 24 25 26 27 28 29 30 31 32 33 34 35 36 37 38 39 40 41 42 43 44 45 46 47 48 49 50
000
ASUS43 KBIS 292020
RWRND

NORTH DAKOTA REGIONAL WEATHER ROUNDUP
NATIONAL WEATHER SERVICE BISMARCK ND
300 PM CDT TUE JUL 29 2014

NOTE: "FAIR" INDICATES FEW OR NO CLOUDS BELOW 12,000 FEET WITH NO
SIGNIFICANT WEATHER AND/OR OBSTRUCTIONS TO VISIBILITY.


NDZ001>003-009>011-017-292100-
NORTHWEST NORTH DAKOTA

CITY           SKY/WX    TMP DP  RH WIND       PRES   REMARKS
WILLISTON      MOSUNNY   84  51  31 N9        30.17F
MINOT          MOSUNNY   77  57  50 S6        30.17F
MINOT AFB      CLOUDY    77  59  54 SE3       30.16F
$$

NDZ018>021-031>035-040>046-292100-
SOUTHWEST NORTH DAKOTA

CITY           SKY/WX    TMP DP  RH WIND       PRES   REMARKS
BISMARCK       CLOUDY    77  53  43 VRB5      30.18F
DICKINSON      MOSUNNY   81  52  36 S6        30.18F
GARRISON         N/A     78  57  48 CALM      30.18F
HETTINGER ARPT PTSUNNY   80  48  32 VRB3      30.21F
$$

NDZ004>008-012>016-024-026-027-054-292100-
NORTHEAST NORTH DAKOTA

CITY           SKY/WX    TMP DP  RH WIND       PRES   REMARKS
GRAND FORKS    MOSUNNY   75  56  51 N5        30.13F
GRND FRKS AFB  SUNNY     78  56  46 NW7       30.15F
DEVILS LAKE    SUNNY     73  54  49 N9        30.16S
$$

NDZ022-023-025-028>030-036>039-047>053-292100-
SOUTHEAST NORTH DAKOTA

CITY           SKY/WX    TMP DP  RH WIND       PRES   REMARKS
FARGO          MOSUNNY   79  49  34 N12G17    30.13F
JAMESTOWN      MOSUNNY   76  51  41 VRB5      30.17F
$$




USA.gov is the U.S. government's official web portal to all federal, state and local government web resources and services.